SCP
1 1 1 1 0 0 0 0 0 0 0 0 0 0 0 0 0 0 0 0 0 1 1 2 2 2 2 2 2 1 1 1 1 1 1 1 1 1 1 1 1 1 1
1 1 1 1 0 0 0 0 0 0 0 0 0 0 0 0 0 0 0 0 0 0 1 1 1 1 2 2 2 2 1 1 1 1 1 1 1 1 1 1 1 1 1
1 1 1 1 0 0 0 0 0 0 0 0 0 0 0 0 0 0 0 0 0 0 0 1 1 1 1 2 2 2 1 1 1 1 1 1 1 1 1 1 1 1 1
1 1 1 1 0 0 0 0 0 0 0 0 0 0 0 0 0 0 0 0 0 0 0 0 0 1 1 1 1 1 1 1 1 1 1 1 1 1 1 1 1 1 1
1 1 1 1 0 0 0 0 0 0 0 0 0 0 0 0 0 0 0 0 0 0 0 0 0 0 0 1 1 1 1 1 1 1 1 1 1 1 1 1 1 1 1
1 1 1 1 0 0 0 0 0 0 0 0 0 0 0 0 0 0 0 0 0 0 0 0 0 0 0 0 0 1 1 1 1 1 1 1 1 1 1 1 1 1 1
1 1 1 1 0 0 0 0 0 0 0 0 0 0 0 0 0 0 0 0 0 0 0 0 0 0 0 0 0 0 0 0 0 1 1 1 1 1 1 1 1 1 1
1 1 1 1 0 0 0 0 0 0 0 0 0 0 0 0 0 0 0 0 0 0 0 0 0 0 0 0 0 0 0 0 0 0 1 1 1 1 1 1 1 1 1
1 1 1 1 0 0 0 0 0 0 0 0 0 0 0 0 0 0 0 0 0 0 0 0 0 0 0 0 0 0 0 0 0 0 0 0 1 1 1 1 1 1 1
1 1 1 1 0 0 0 0 0 0 0 0 0 0 0 0 0 0 0 0 0 0 0 0 0 0 0 0 0 0 0 0 0 0 0 0 1 1 1 1 1 1 1
1 1 1 1 0 0 0 0 0 0 0 0 0 0 0 0 0 0 0 0 0 0 0 0 0 0 0 0 0 0 0 0 0 0 0 0 1 1 1 1 1 1 1
1 0 0 0 0 0 0 0 0 0 0 0 0 0 0 0 0 0 0 0 0 0 0 0 0 0 0 0 0 0 0 0 0 0 0 0 1 1 1 1 1 1 1
1 0 0 0 0 0 0 0 0 0 0 0 0 0 0 0 0 0 0 0 0 0 0 0 0 0 0 0 0 0 0 0 0 0 0 0 0 1 1 1 1 1 1
0 0 0 0 0 0 0 0 0 0 0 0 0 0 0 0 0 0 0 0 0 0 0 0 0 0 0 0 0 0 0 0 0 0 0 0 0 0 0 0 0 0 1
0 0 0 0 0 0 0 0 0 0 0 0 0 0 0 0 0 0 0 0 0 0 0 0 0 0 0 0 0 0 0 0 0 0 0 0 0 0 0 0 0 0 0
0 0 0 0 0 0 0 0 0 0 0 0 0 0 0 0 0 0 0 0 0 0 0 0 0 0 0 0 0 0 0 0 0 0 0 0 0 0 0 0 0 0 0
0 0 0 0 0 0 0 0 0 0 0 0 0 0 0 0 0 0 0 0 0 0 0 0 0 0 0 0 0 0 0 0 0 0 0 0 0 0 0 0 0 0 0
0 0 0 0 0 0 0 0 0 0 0 0 0 0 0 0 0 0 0 0 0 0 0 0 0 0 0 0 0 0 0 0 0 0 0 0 0 0 0 0 0 0 0
0 0 0 0 0 0 0 0 0 0 0 0 0 0 0 0 0 0 0 0 0 0 0 0 0 0 0 0 0 0 0 0 0 0 0 0 0 0 0 0 0 0 0
0 0 0 0 0 0 0 0 0 0 0 0 0 0 0 0 0 0 0 0 0 0 0 0 0 0 0 0 0 0 0 0 0 0 0 0 0 0 0 0 0 0 0
0 0 0 0 0 0 0 0 0 0 0 0 0 0 0 0 0 0 0 0 0 0 0 0 0 0 0 0 0 0 0 0 0 0 0 0 0 0 0 0 0 0 0
0 0 0 0 0 0 0 0 0 0 0 0 0 0 0 0 0 0 0 0 0 0 0 0 0 0 0 0 0 0 0 0 0 0 0 0 0 0 0 0 0 0 0
0 0 0 0 0 0 0 0 0 0 0 0 0 0 0 0 0 0 0 0 0 0 0 0 0 0 0 0 0 0 0 0 0 0 0 0 0 0 0 0 0 0 0
0 0 0 0 0 0 0 0 0 0 0 0 0 0 0 0 0 0 0 0 0 0 0 0 0 0 0 0 0 0 0 0 0 0 0 0 0 0 0 0 0 0 0
0 0 0 0 0 0 0 0 0 0 0 0 0 0 0 0 0 0 0 0 0 0 0 0 0 0 0 0 0 0 0 0 0 0 0 0 0 0 0 0 0 0 0
0 0 0 0 0 0 0 0 0 0 0 0 0 0 0 0 0 0 0 0 0 0 0 0 0 0 0 0 0 0 0 0 0 0 0 0 0 0 0 0 0 0 0
Wind_Speed
2 2 2 2 3 3 3 3 3 4 4 4 4 4 4 4 3 3 3 7 8 8 8 8 8 7 7 6 5 5 5 6 7 8 8 8 8 9 9 10 10 11 12
2 2 2 2 3 3 3 3 3 3 3 3 4 4 4 3 3 3 3 5 9 10 9 9 9 9 8 8 7 6 5 5 6 6 8 8 8 8 9 10 10 11 11
2 2 2 2 3 3 3 2 3 3 3 4 4 4 3 3 3 4 4 3 4 8 11 10 10 10 10 10 9 8 7 6 6 6 6 7 8 9 10 10 9 10 11
3 2 2 2 2 2 2 2 3 3 3 4 3 3 3 3 3 4 4 4 4 4 7 11 11 11 11 11 11 9 9 8 7 6 5 5 6 7 9 9 9 9 10
3 2 2 2 2 2 3 3 3 2 3 4 3 3 3 2 3 4 4 5 4 4 4 8 11 12 12 12 13 12 12 10 9 8 7 6 7 7 8 9 9 9 9
2 2 2 2 3 2 3 3 2 2 2 3 3 3 2 2 3 3 4 4 4 5 5 6 5 8 12 13 13 13 13 12 11 11 10 9 8 8 8 8 8 9 10
2 2 2 2 2 2 2 3 2 3 3 3 2 3 2 2 3 3 3 3 5 5 5 5 5 4 5 11 13 14 14 13 13 12 11 10 10 9 8 8 8 9 10
1 1 1 1 2 2 3 3 2 2 2 3 2 2 3 3 3 3 3 3 4 4 5 5 5 5 4 4 9 14 15 14 14 13 13 12 11 10 10 9 9 9 10
1 1 1 1 1 1 1 2 2 2 1 2 2 1 1 2 3 3 2 3 4 3 3 3 5 5 5 4 5 10 14 15 15 14 14 14 13 12 11 11 10 10 10
1 0 0 0 0 0 1 1 1 0 0 1 1 1 0 1 1 3 2 2 3 3 3 3 4 4 5 4 6 11 13 14 14 14 14 14 14 13 13 12 12 11 11
1 1 1 1 1 1 1 1 1 0 0 1 1 0 0 0 1 2 3 3 3 2 2 2 2 3 4 4 4 9 13 14 14 14 14 14 14 14 14 13 13 11 11
2 2 1 1 1 1 1 1 1 1 1 1 1 1 1 1 1 1 2 3 3 2 2 1 1 2 3 3 6 11 13 13 14 14 14 14 14 13 14 14 13 13 12
2 2 2 2 2 2 2 1 1 1 1 1 1 1 1 2 2 2 2 3 3 3 2 1 1 1 3 3 4 11 11 13 13 14 14 14 14 13 14 14 14 14 13
3 3 2 2 3 2 2 2 1 2 1 2 2 2 1 2 1 2 2 2 3 3 2 3 1 1 2 3 6 10 7 13 13 13 13 14 13 13 13 13 14 14 12
3 3 3 3 3 3 2 2 2 2 2 2 3 2 2 2 2 2 2 2 2 3 3 3 2 2 2 2 6 4 5 11 13 13 13 13 13 13 12 12 13 13 13
3 3 3 3 3 3 3 3 3 3 3 3 2 3 3 2 2 2 2 2 2 3 4 3 2 2 3 4 7 4 5 12 12 12 12 12 12 12 12 12 12 12 13
3 3 3 3 3 3 3 3 3 3 3 3 3 3 4 3 2 2 2 2 2 3 5 4 2 2 3 4 5 4 4 4 5 11 12 12 12 12 12 12 12 12 12
3 4 3 3 4 4 4 4 5 4 4 5 4 4 4 3 3 3 2 3 3 3 4 5 3 3 3 4 4 5 5 5 4 9 11 11 12 12 12 12 13 12 12
3 3 3 4 4 4 4 5 5 5 5 6 5 5 5 4 4 3 3 4 3 3 3 4 4 3 3 3 4 4 5 4 5 7 9 10 11 12 12 12 12 12 12
3 4 4 4 5 5 5 5 5 5 5 6 6 6 6 6 6 5 5 5 4 3 3 4 4 3 3 3 2 3 5 4 5 5 6 8 10 11 12 12 12 12 12
4 4 4 4 4 4 5 5 5 6 6 6 6 6 6 8 9 7 5 5 4 4 3 4 4 4 3 3 3 2 4 5 5 2 3 4 5 4 5 9 11 11 12
4 4 4 5 5 5 9 11 8 6 6 6 6 6 6 8 10 11 11 9 7 5 5 4 4 5 5 3 3 3 3 4 4 2 3 5 3 4 4 4 10 12 11
4 4 5 5 6 8 12 12 12 6 6 6 6 6 5 6 8 5 8 10 9 10 9 5 5 6 5 3 3 4 3 4 5 4 3 5 3 4 4 6 12 11 10
4 5 5 6 6 8 12 13 13 7 6 7 7 7 6 6 6 6 5 5 5 6 7 5 5 5 5 4 4 4 4 4 5 3 2 4 3 3 5 5 9 9 11
5 5 5 6 7 9 12 13 12 4 5 7 7 7 7 6 10 11 6 6 6 6 9 10 10 9 9 8 5 2 2 3 4 3 1 2 3 5 4 3 5 9 11
5 5 6 6 7 8 12 14 13 4 5 5 5 6 10 10 11 11 7 6 7 6 5 5 6 7 5 5 7 3 2 3 3 3 1 1 2 3 5 3 3 4 6
Wind_Direction
37 26 19 14 8 4 5 359 359 356 355 354 357 0 352 355 354 359 356 12 12 8 3 357 350 345 339 329 323 311 293 277 265 263 262 259 253 254 257 257 254 251 247
46 35 23 15 6 0 356 351 350 348 345 348 354 355 350 359 3 14 13 15 21 18 14 10 6 3 359 355 349 345 336 310 294 282 274 269 263 257 256 258 258 255 250
47 44 30 18 2 354 352 352 355 355 2 1 356 353 359 10 10 18 20 21 14 19 19 17 15 12 8 2 358 355 354 346 324 307 293 283 276 269 264 263 261 259 254
49 48 37 15 359 357 359 3 7 3 4 359 352 354 3 7 16 25 30 29 22 19 18 23 19 17 13 11 8 5 3 1 353 329 315 305 293 283 277 270 264 263 262
45 54 38 6 2 11 9 6 12 9 358 352 345 1 5 10 20 33 34 29 26 25 20 21 24 25 21 17 14 11 6 4 358 348 335 322 310 300 292 287 276 268 265
46 54 47 15 14 19 12 8 4 8 0 341 345 8 8 17 31 36 32 29 27 28 25 26 23 22 23 20 16 11 5 3 1 0 354 341 322 310 308 299 290 283 275
49 62 46 20 20 24 6 358 2 9 5 353 5 359 359 20 38 38 31 33 27 25 28 30 26 21 14 16 13 10 5 360 357 355 353 349 342 332 321 313 305 301 293
13 47 69 35 18 17 9 7 14 9 1 14 23 5 346 344 8 21 22 33 25 21 28 28 25 22 17 9 5 7 4 358 354 351 349 347 343 337 329 320 312 309 303
345 26 34 36 17 27 351 346 6 28 354 354 28 61 49 304 317 329 3 23 17 16 13 12 22 17 15 9 356 1 3 358 354 351 347 344 342 334 328 324 318 316 312
279 256 220 248 336 349 322 325 17 10 59 333 340 18 167 197 286 313 320 355 7 7 3 8 9 7 10 5 0 1 0 355 352 348 345 343 344 343 335 326 319 317 314
277 259 234 226 249 260 277 303 330 341 173 223 257 288 291 298 213 236 291 318 338 328 337 351 352 356 4 2 349 355 357 353 351 348 346 345 347 348 345 336 325 320 317
270 259 242 231 239 244 254 260 264 263 241 231 231 216 209 227 235 232 263 293 301 293 307 313 352 353 355 354 348 355 352 349 348 346 345 347 349 347 345 342 334 328 320
260 254 238 234 234 237 241 238 236 243 234 230 232 233 229 233 230 230 254 279 287 292 298 298 305 343 352 349 337 352 348 347 346 345 345 347 348 348 345 342 339 332 324
250 245 234 235 238 238 239 227 230 236 229 235 244 236 233 246 232 224 229 258 294 297 286 280 288 324 341 337 338 351 340 342 343 343 343 343 346 346 345 344 342 340 335
250 244 234 236 241 236 231 221 227 234 226 232 241 238 234 244 234 231 226 216 238 284 288 282 284 311 328 326 335 339 328 332 338 338 341 342 343 343 343 344 346 347 344
248 246 242 239 241 238 231 221 230 231 223 233 230 233 240 243 241 232 222 222 219 233 265 276 268 289 311 324 332 332 318 332 334 334 337 338 340 341 343 344 345 343 340
245 241 240 239 239 239 230 220 229 227 229 240 237 230 241 234 233 237 227 220 223 219 253 273 268 284 293 307 318 316 309 313 318 329 333 337 338 341 342 342 341 338 338
251 245 242 240 242 240 230 222 231 229 227 235 238 234 243 238 237 235 227 228 231 226 238 270 281 284 280 295 303 310 318 321 311 321 330 334 336 338 342 341 337 335 336
262 256 241 241 244 242 237 230 225 228 228 232 230 229 236 230 240 239 233 235 237 242 234 257 276 273 276 290 303 304 307 304 313 319 326 333 334 334 336 338 337 337 336
263 261 250 246 246 245 241 236 230 231 231 234 232 231 231 226 233 233 235 234 233 240 242 253 268 276 275 279 291 304 313 315 313 315 322 326 329 333 336 338 338 336 334
268 260 256 255 250 246 242 235 232 230 230 236 237 234 233 235 238 236 234 225 220 230 239 249 264 275 280 286 289 291 304 311 301 298 316 315 317 316 324 328 332 332 332
278 268 259 256 256 255 260 256 246 230 229 232 240 241 242 248 250 250 250 244 231 228 233 240 255 264 272 266 270 284 300 317 311 318 324 307 302 300 308 309 323 329 334
277 274 268 260 258 260 267 267 261 244 228 231 235 239 244 242 245 242 254 258 258 255 249 239 243 254 261 252 260 275 275 279 276 294 309 292 292 290 298 313 321 326 336
274 272 271 265 263 265 271 270 267 254 234 231 231 231 235 242 236 232 231 239 243 251 255 250 240 247 245 242 235 251 264 276 272 270 260 281 295 291 303 302 313 326 335
278 273 271 266 264 269 272 271 268 248 240 237 233 230 232 235 246 248 240 238 246 251 258 255 255 259 266 271 266 255 268 289 294 287 243 271 300 307 296 286 305 325 330
272 277 276 267 260 265 271 271 267 243 241 243 238 235 242 242 247 250 241 235 247 249 238 253 261 269 269 275 279 249 231 255 277 285 258 278 295 325 314 292 289 306 313